This is the latest recevied weather packets stored in our database for station/object K5NWZ. If no packets are shown the sender has not sent any weather packets the latest 10 day(s).
| Time | Temp. | Humidity | Pressure | Rain* | Wind** | Luminosity | Snow |
|---|---|---|---|---|---|---|---|
| 1787569452 | 16.11° C | 72% | 1029.4 hPa | 0 mm | - | 0 W/m² | - |
| 1787569145 | 16.67° C | 73% | 1029.5 hPa | 0 mm | - | 0 W/m² | - |
| 1787568841 | 16.67° C | 72% | 1029.3 hPa | 0 mm | - | 0 W/m² | - |
| 1787568537 | 16.67° C | 72% | 1029.3 hPa | 0 mm | - | 0 W/m² | - |
| 1787568233 | 16.67° C | 71% | 1028.9 hPa | 0 mm | - | 0 W/m² | - |
| 1787567928 | 17.22° C | 70% | 1029.3 hPa | 0 mm | - | 0 W/m² | - |
| 1787567623 | 17.22° C | 70% | 1029.1 hPa | 0 mm | - | 0 W/m² | - |
| 1787567322 | 17.22° C | 69% | 1029.1 hPa | 0 mm | - | 0 W/m² | - |
| 1787567016 | 17.22° C | 68% | 1029.3 hPa | 0 mm | - | 0 W/m² | - |
| 1787566710 | 17.22° C | 71% | 1029.3 hPa | 0 mm | - | 0 W/m² | - |
| 1787566405 | 17.22° C | 71% | 1029.3 hPa | 0 mm | - | 0 W/m² | - |
| 1787566102 | 17.78° C | 69% | 1029.3 hPa | 0 mm | - | 0 W/m² | - |
| 1787565801 | 17.78° C | 69% | 1029.3 hPa | 0 mm | - | 0 W/m² | - |
| 1787565497 | 17.78° C | 68% | 1029.5 hPa | 0 mm | - | 0 W/m² | - |
| 1787565193 | 17.78° C | 67% | 1029 hPa | 0 mm | - | 0 W/m² | - |
| 1787564890 | 17.78° C | 67% | 1029.1 hPa | 0 mm | - | 0 W/m² | - |
| 1787564589 | 18.33° C | 67% | 1029.3 hPa | 0 mm | - | 0 W/m² | - |
| 1787564286 | 18.33° C | 67% | 1029.3 hPa | 0 mm | - | 0 W/m² | - |
| 1787563980 | 18.89° C | 65% | 1029.3 hPa | 0 mm | - | 0 W/m² | - |
| 1787563676 | 18.89° C | 63% | 1029.3 hPa | 0 mm | - | 0 W/m² | - |
| 1787563375 | 18.89° C | 64% | 1029.4 hPa | 0 mm | - | 0 W/m² | - |
| 1787563071 | 18.89° C | 65% | 1029.4 hPa | 0 mm | - | 0 W/m² | - |
| 1787562767 | 19.44° C | 63% | 1029.5 hPa | 0 mm | - | 0 W/m² | - |
| 1787562463 | 19.44° C | 61% | 1029.4 hPa | 0 mm | - | 0 W/m² | - |
| 1787562158 | 19.44° C | 63% | 1029.4 hPa | 0 mm | - | 0 W/m² | - |
* Rain latest hour (hover to see other rain measurements)
** Current wind speed in m/s (hover to see current wind gust speed)